Flag for Bosnia-Herzegovina Weather past 2 weeks in Mostar, Bosnia-Herzegovina

50 °F

Passing clouds.

Feels Like: 46 °F
Forecast: 32 / 48 °F
Wind: 9 mph from North

Location: Mostar

Current Time: Nov 27, 2015 at 4:40:07 AM

Latest Report: Nov 27, 2015 at 4:00 AM

Visibility: N/A

Pressure: 29.53 "Hg

Humidity: 43%

Dew point: 28 °F

Location of MostarLocation

Historic Weather in Mostar — Graph


Mostar temperature yesterday

Maximum temperature yesterday: 50 °F (at 11:00 AM)
Minimum temperature yesterday: 39 °F (at 7:30 AM)
Average temperature yesterday: 46 °F

Past Weeks' High & Low Weather Summary

High75 °F (Nov 12, 2:00 PM)100% (Nov 12, 4:00 AM)30.33 "Hg (Nov 12, 4:00 AM)
Low34 °F (Nov 17, 6:00 AM)39% (Nov 12, 2:00 PM)29.15 "Hg (Nov 21, 7:00 PM)
Average50 °F80%29.97 "Hg
* Reported Nov 12 3:00 AM — Nov 27 3:00 AM, Mostar, Weather by CustomWeather, © 2015

Note: Actual official high and low records may vary slightly from our data, if they occured in-between our weather recording intervals... More about our weather records


Mostar weather history for previous 24 hours

Time TempWeatherWind HumidityBarometerVisibility
3:00 AM
Fri, Nov 27
50 °FPassing clouds.9 mph43%29.56 "HgN/A
2:00 AM48 °FPassing clouds.12 mph46%29.56 "HgN/A
1:00 AM46 °FPassing clouds.15 mph50%29.59 "HgN/A
12:00 AM50 °FPassing clouds.18 mph43%29.56 "HgN/A
11:00 PM
Thu, Nov 26
50 °FPassing clouds.10 mph43%29.53 "HgN/A
10:00 PM48 °FPassing clouds.16 mph46%29.53 "HgN/A
9:00 PM50 °FPassing clouds.12 mph47%29.53 "HgN/A
8:00 PM50 °FPassing clouds.8 mph47%29.53 "HgN/A
7:00 PM50 °FPassing clouds.21 mph47%29.50 "HgN/A
6:00 PM50 °FPassing clouds.7 mph50%29.47 "HgN/A
5:00 PM48 °FPartly cloudy.5 mph54%29.47 "HgN/A
4:00 PM48 °FLight rain. More clouds than sun.3 mph62%29.47 "HgN/A
3:00 PM48 °FLight rain. More clouds than sun.2 mph66%29.47 "HgN/A
2:00 PM50 °FLight rain. More clouds than sun.5 mph50%29.47 "HgN/A
1:00 PM50 °FBroken clouds.3 mph50%29.47 "HgN/A
12:00 PM50 °FBroken clouds.5 mph54%29.50 "HgN/A
11:30 AM50 °FBroken clouds.3 mph50%29.50 "HgN/A
11:00 AM50 °FBroken clouds.3 mph54%29.50 "HgN/A
10:30 AM46 °FBroken clouds.5 mph62%29.53 "HgN/A
10:00 AM46 °FBroken clouds.2 mph62%29.53 "HgN/A
9:30 AM46 °FScattered clouds.3 mph66%29.53 "HgN/A
9:00 AM45 °FPassing clouds.5 mph71%29.53 "HgN/A
8:30 AM43 °FPassing clouds.2 mph81%29.50 "HgN/A
8:00 AM39 °FPassing clouds.3 mph87%29.50 "HgN/A
7:30 AM39 °FPassing clouds.3 mph87%29.50 "HgN/A
7:00 AM41 °FScattered clouds.1 mph81%29.50 "HgN/A
6:30 AM41 °FPassing clouds.2 mph81%29.50 "HgN/A
6:00 AM41 °FPassing clouds.2 mph81%29.50 "HgN/A
5:00 AM43 °FPassing clouds.2 mph81%29.47 "HgN/A
4:00 AM45 °FPartly cloudy.5 mph76%29.47 "HgN/A
Weather by CustomWeather, © 2015

See weather overviewHow to use our weather pages